Date,TemperatureHighF,TemperatureAvgF,TemperatureLowF,DewpointHighF,DewpointAvgF,DewpointLowF,HumidityHigh,HumidityAvg,HumidityLow,PressureMaxIn,PressureMinIn,WindSpeedMaxMPH,WindSpeedAvgMPH,GustSpeedMaxMPH,PrecipitationSumIn
2013-8-1,84.6,68.7,55.2,63.0,57.3,51.1,89,69,42,30.02,29.83,4,0,7,0.00
2013-8-2,77.5,68.6,58.6,61.3,56.4,53.1,90,67,44,30.01,29.81,5,0,5,0.00
2013-8-3,81.1,67.1,54.0,58.8,53.6,50.5,91,65,38,30.17,30.01,5,0,5,0.00
2013-8-4,75.0,63.8,53.1,60.6,55.2,48.7,89,74,54,30.21,29.98,3,0,4,0.00
2013-8-5,80.1,67.8,61.7,71.2,63.0,56.1,93,85,69,30.00,29.75,3,0,3,1.03
2013-8-6,86.0,69.5,58.6,70.5,62.4,55.4,92,80,56,29.82,29.63,11,-10,12,0.37
2013-8-7,79.3,67.2,61.0,59.9,56.8,51.8,93,72,41,30.01,29.75,5,0,6,0.37
2013-8-8,75.6,64.3,55.6,61.5,57.4,52.2,91,79,59,30.03,29.96,5,0,6,0.00
2013-8-9,77.7,67.1,58.1,61.3,55.9,52.7,92,70,44,30.09,29.97,6,0,6,0.00
2013-8-10,79.3,68.4,61.5,58.5,55.6,51.6,83,65,44,30.16,30.05,4,0,5,0.00
2013-8-11,81.7,70.3,64.6,68.5,62.7,57.6,87,78,58,30.06,29.96,3,0,5,0.00
2013-8-12,80.8,70.9,61.5,63.5,58.8,54.5,91,68,43,30.04,29.96,5,0,6,0.00
2013-8-13,78.1,66.3,55.8,56.8,51.9,47.7,88,62,38,30.17,30.04,3,0,5,0.00
2013-8-14,77.7,64.6,54.1,58.5,53.6,49.1,89,69,44,30.18,30.08,5,0,6,0.00
2013-8-15,80.1,65.5,53.2,62.4,56.3,49.5,90,74,49,30.12,30.05,4,0,5,0.00
2013-8-16,81.7,68.3,56.8,61.9,57.2,53.1,90,70,43,30.17,30.10,5,0,7,0.00
2013-8-17,84.6,69.3,56.3,60.8,56.9,52.9,90,67,40,30.18,30.07,10,0,11,0.00
2013-8-18,84.6,71.2,60.6,62.4,58.9,54.7,83,67,45,30.11,29.97,11,0,15,0.00
2013-8-19,89.1,75.3,66.4,72.0,65.2,58.8,81,72,54,29.99,29.85,17,0,17,0.00
2013-8-20,90.7,78.8,70.5,75.0,70.0,65.1,84,75,59,29.88,29.80,13,0,13,0.00
2013-8-21,86.5,78.3,72.5,77.0,72.3,67.8,88,82,70,29.94,29.78,6,0,7,0.03
2013-8-22,89.8,76.6,66.4,68.2,58.6,54.9,83,55,34,30.09,29.94,3,0,6,0.00
2013-8-23,88.5,73.2,60.1,69.6,61.9,52.5,80,69,49,30.12,29.99,8,0,9,0.00
2013-8-24,90.9,79.1,70.5,74.5,69.8,64.8,84,74,58,30.03,29.89,15,0,19,0.00
2013-8-25,97.0,85.5,78.1,77.5,73.8,70.3,79,69,53,29.96,29.87,15,1,17,0.00
2013-8-26,96.3,85.4,77.2,78.8,75.2,72.0,86,73,54,29.94,29.78,9,0,15,0.00
2013-8-27,98.2,84.9,76.1,80.2,75.0,71.2,86,73,54,29.86,29.73,4,0,5,0.00
2013-8-28,92.3,80.2,71.6,75.6,71.9,68.2,91,77,51,29.95,29.85,2,0,4,0.00
2013-8-29,96.3,82.8,75.7,77.4,72.9,70.2,89,74,44,29.94,29.79,10,0,11,0.00
2013-8-30,87.1,78.3,72.0,72.3,68.2,63.1,86,72,54,29.88,29.75,7,0,7,0.00
2013-8-31,91.8,75.5,65.1,71.4,66.0,60.4,89,74,50,29.85,29.67,9,0,15,0.07